EW7535 Weather Reports


Display with metric or nautical units.
time (UTC)temp
F
wind
direction
speed
MPH
gust
MPH
rain 1hr
in
rain 24hr
in
rain mn
in
humidity
%
barometer
mb
20260904014530 84 124 0.0 5.0 0.00 0.04 0.04 60 1006.4
20260904013030 85 116 2.0 5.0 0.00 0.04 0.04 58 1006.3
20260904011531 86 176 2.0 7.0 0.00 0.04 0.04 57 1005.8
20260904010026 86 224 0.0 3.0 0.00 0.04 0.04 61 1005.8
20260904004524 87 197 0.0 3.0 0.00 0.04 0.04 60 1005.9
20260904003024 85 260 0.0 2.0 0.03 0.04 0.04 63 1005.9
20260904001522 83 116 0.0 0.0 0.04 0.04 0.04 71 1005.8
20260904000103 82 127 0.0 0.0 0.04 0.04 0.04 80 1005.9
20260903234519 81 116 0.0 1.0 0.04 0.04 0.04 77 1005.9
20260903233017 85 226 0.0 4.0 0.01 0.01 0.01 67 1006.2
20260903231513 89 274 3.0 5.0 0.00 0.00 0.00 51 1006.1
20260903230021 90 203 0.0 2.0 0.00 0.00 0.00 50 1006.1
20260903224532 91 250 1.0 5.0 0.00 0.00 0.00 45 1006.0
20260903223012 91 267 4.0 10.0 0.00 0.00 0.00 45 1005.9
20260903221551 91 297 0.0 7.0 0.00 0.00 0.00 45 1006.1
20260903220038 94 295 3.0 9.0 0.00 0.00 0.00 43 1006.2
20260903214537 95 250 2.0 5.0 0.00 0.00 0.00 41 1006.4
20260903213036 95 252 3.0 6.0 0.00 0.00 0.00 40 1006.5
20260903211538 93 285 4.0 7.0 0.00 0.00 0.00 42 1006.6
20260903210031 93 304 0.0 5.0 0.00 0.00 0.00 44 1006.9
20260903204557 93 6 2.0 9.0 0.00 0.00 0.00 43 1007.0
20260903203055 95 134 1.0 5.0 0.00 0.00 0.00 43 1007.3
20260903201550 93 150 0.0 4.0 0.00 0.00 0.00 44 1007.6
20260903200048 92 269 2.0 4.0 0.00 0.00 0.00 44 1007.9
20260903194551 90 291 2.0 5.0 0.00 0.00 0.00 48 1008.1
20260903193050 92 124 0.0 3.0 0.00 0.00 0.00 45 1008.3
20260903191545 93 203 1.0 5.0 0.00 0.00 0.00 45 1008.6
20260903190047 92 200 3.0 6.0 0.00 0.00 0.00 46 1008.8
20260903184533 89 253 0.0 4.0 0.00 0.00 0.00 50 1009.1
20260903183032 88 276 1.0 2.0 0.00 0.00 0.00 50 1009.4
20260903181540 90 209 0.0 4.0 0.00 0.00 0.00 52 1009.6
20260903180025 89 117 1.0 5.0 0.00 0.00 0.00 52 1009.8
20260903174523 88 86 0.0 3.0 0.00 0.00 0.00 54 1010.0
20260903173019 87 152 1.0 6.0 0.00 0.00 0.00 54 1010.1
20260903171547 86 120 2.0 5.0 0.00 0.00 0.00 57 1010.1
20260903170054 84 107 0.0 4.0 0.00 0.00 0.00 60 1010.1
20260903164539 83 110 2.0 6.0 0.00 0.00 0.00 59 1010.1
20260903163047 83 122 2.0 7.0 0.00 0.00 0.00 60 1010.1
20260903161535 82 92 2.0 5.0 0.00 0.00 0.00 62 1010.1
20260903160033 82 124 0.0 2.0 0.00 0.00 0.00 64 1010.1
20260903154531 82 124 1.0 3.0 0.00 0.00 0.00 64 1010.1
20260903153029 82 120 0.0 4.0 0.00 0.00 0.00 65 1010.1
20260903151526 80 295 0.0 0.0 0.00 0.00 0.00 68 1010.2
20260903150034 79 295 0.0 1.0 0.00 0.00 0.00 70 1010.1
20260903144555 78 288 3.0 6.0 0.00 0.00 0.00 71 1010.1
20260903143059 78 297 1.0 5.0 0.00 0.00 0.00 71 1010.1
20260903141556 78 304 2.0 9.0 0.00 0.00 0.00 70 1010.2
20260903140050 78 296 2.0 7.0 0.00 0.00 0.00 67 1010.2
20260903134548 78 115 0.0 0.0 0.00 0.00 0.00 72 1010.1
20260903133047 78 116 0.0 0.0 0.00 0.00 0.00 72 1010.0
20260903131545 78 115 0.0 0.0 0.00 0.00 0.00 71 1010.0
20260903130041 78 115 0.0 0.0 0.00 0.00 0.00 70 1009.7
20260903124539 78 115 0.0 0.0 0.00 0.00 0.00 68 1009.7
20260903123038 78 143 0.0 0.0 0.00 0.00 0.00 68 1009.3
20260903121538 78 108 0.0 3.0 0.00 0.00 0.00 69 1009.2
20260903120040 78 93 0.0 3.0 0.00 0.00 0.00 69 1009.2
20260903114534 78 111 0.0 3.0 0.00 0.00 0.00 69 1009.0
20260903113033 78 89 0.0 4.0 0.00 0.00 0.00 69 1008.9
20260903111534 79 85 1.0 6.0 0.00 0.00 0.00 69 1009.0
20260903110029 79 112 2.0 5.0 0.00 0.00 0.00 69 1009.0
20260903104528 79 96 0.0 5.0 0.00 0.00 0.00 70 1008.9
20260903103027 78 120 1.0 5.0 0.00 0.00 0.00 70 1009.0
20260903101527 79 92 2.0 4.0 0.00 0.00 0.00 70 1009.1
20260903100026 79 120 0.0 3.0 0.00 0.00 0.00 70 1009.1
20260903094519 79 124 1.0 5.0 0.00 0.00 0.00 69 1009.1
20260903093024 79 126 0.0 3.0 0.00 0.00 0.00 69 1009.1
20260903091517 80 124 0.0 1.0 0.00 0.00 0.00 69 1009.2
20260903090014 80 124 0.0 0.0 0.00 0.00 0.00 68 1009.2
20260903084512 80 110 0.0 0.0 0.00 0.00 0.00 68 1009.2
20260903083012 80 120 0.0 0.0 0.00 0.00 0.00 67 1009.3
20260903081515 80 135 0.0 0.0 0.00 0.00 0.00 67 1009.4
20260903080006 81 135 0.0 0.0 0.00 0.00 0.00 65 1009.4
20260903074503 81 135 0.0 3.0 0.00 0.00 0.00 63 1009.5
20260903073001 81 95 0.0 3.0 0.00 0.00 0.00 63 1009.4
20260903071502 81 94 0.0 2.0 0.00 0.00 0.00 62 1009.4
20260903070104 82 96 0.0 3.0 0.00 0.00 0.00 61 1009.3
20260903064606 81 113 0.0 0.0 0.00 0.00 0.00 61 1009.1
20260903063104 82 113 0.0 0.0 0.00 0.00 0.00 60 1009.1
20260903061605 82 98 0.0 3.0 0.00 0.00 0.00 60 1009.1
20260903060055 82 107 0.0 0.0 0.00 0.00 0.00 59 1009.2
20260903054555 82 94 0.0 0.0 0.00 0.00 0.00 58 1009.3
20260903053054 82 95 0.0 2.0 0.00 0.00 0.00 57 1009.4
20260903051554 82 97 0.0 3.0 0.00 0.00 0.00 57 1009.4
20260903050023 82 99 0.0 0.0 0.00 0.00 0.00 58 1009.5
20260903044522 82 98 0.0 0.0 0.00 0.00 0.00 58 1009.5
20260903043023 83 98 0.0 1.0 0.00 0.00 0.00 56 1009.2
20260903041522 83 98 0.0 3.0 0.00 0.00 0.00 55 1009.1
20260903040019 84 104 1.0 6.0 0.00 0.00 0.00 55 1009.1
20260903034525 84 91 1.0 3.0 0.00 0.00 0.00 56 1008.9
20260903033015 84 102 0.0 2.0 0.00 0.00 0.00 58 1008.7
20260903031515 83 97 0.0 0.0 0.00 0.00 0.00 58 1008.6
20260903030015 83 124 0.0 0.0 0.00 0.00 0.00 58 1008.3
20260903024514 84 96 0.0 1.0 0.00 0.00 0.00 56 1008.1
20260903023028 84 110 0.0 0.0 0.00 0.00 0.00 56 1007.9
20260903021511 85 127 0.0 0.0 0.00 0.00 0.00 53 1007.8
20260903020010 85 101 0.0 0.0 0.00 0.00 0.00 53 1007.9